Time,TemperatureF,DewpointF,PressureIn,WindDirection,WindDirectionDegrees,WindSpeedMPH,WindSpeedGustMPH,Humidity,HourlyPrecipIn,Conditions,Clouds,dailyrainin,SolarRadiationWatts/m^2,SoftwareType,DateUTC
2013-04-27 00:01:00,56.0,31.0,-100.00,East,90,6.0,9.0,38,0.00,,,0.00,1.000000,,2013-04-27 07:01:00,
2013-04-27 00:22:00,56.0,30.0,-100.00,East,93,6.0,9.0,37,0.00,,,0.00,1.000000,,2013-04-27 07:22:00,
2013-04-27 00:32:00,56.0,30.0,-100.00,East,93,6.0,9.0,37,0.00,,,0.00,1.000000,,2013-04-27 07:32:00,
2013-04-27 00:42:00,56.0,30.0,-100.00,East,93,6.0,9.0,37,0.00,,,0.00,1.000000,,2013-04-27 07:42:00,
2013-04-27 00:52:00,56.0,30.0,-100.00,East,93,6.0,9.0,37,0.00,,,0.00,1.000000,,2013-04-27 07:52:00,
2013-04-27 01:01:00,56.0,30.0,-100.00,East,93,6.0,9.0,37,0.00,,,0.00,1.000000,,2013-04-27 08:01:00,
2013-04-27 01:22:00,54.0,28.0,-100.00,East,95,4.0,10.0,36,0.00,,,0.00,1.000000,,2013-04-27 08:22:00,
2013-04-27 01:33:00,54.0,28.0,-100.00,East,95,4.0,10.0,36,0.00,,,0.00,1.000000,,2013-04-27 08:33:00,
2013-04-27 01:42:00,54.0,28.0,-100.00,East,95,4.0,10.0,36,0.00,,,0.00,1.000000,,2013-04-27 08:42:00,
2013-04-27 01:52:00,54.0,28.0,-100.00,East,95,4.0,10.0,36,0.00,,,0.00,1.000000,,2013-04-27 08:52:00,
2013-04-27 02:01:00,54.0,28.0,-100.00,East,95,4.0,10.0,36,0.00,,,0.00,1.000000,,2013-04-27 09:01:00,
2013-04-27 02:02:00,52.0,28.0,-100.00,SE,129,4.0,6.0,39,0.00,,,0.00,1.000000,,2013-04-27 09:02:00,
2013-04-27 02:33:00,52.0,28.0,-100.00,SE,129,4.0,6.0,39,0.00,,,0.00,1.000000,,2013-04-27 09:33:00,
2013-04-27 02:43:00,52.0,28.0,-100.00,SE,129,4.0,6.0,39,0.00,,,0.00,1.000000,,2013-04-27 09:43:00,
2013-04-27 02:53:00,52.0,28.0,-100.00,SE,129,4.0,6.0,39,0.00,,,0.00,1.000000,,2013-04-27 09:53:00,
2013-04-27 03:02:00,48.0,27.0,-100.00,SW,235,4.0,7.0,44,0.00,,,-99.99,1.000000,,2013-04-27 10:02:00,
2013-04-27 03:33:00,48.0,27.0,-100.00,SW,235,4.0,7.0,44,0.00,,,-99.99,1.000000,,2013-04-27 10:33:00,
2013-04-27 03:42:00,48.0,27.0,-100.00,SW,235,4.0,7.0,44,0.00,,,-99.99,1.000000,,2013-04-27 10:42:00,
2013-04-27 03:52:00,48.0,27.0,-100.00,SW,235,4.0,7.0,44,0.00,,,-99.99,1.000000,,2013-04-27 10:52:00,
2013-04-27 04:32:00,48.0,29.0,-100.00,NE,37,3.0,6.0,48,0.00,,,0.00,1.000000,,2013-04-27 11:32:00,
2013-04-27 04:42:00,48.0,29.0,-100.00,NE,37,3.0,6.0,48,0.00,,,0.00,1.000000,,2013-04-27 11:42:00,
2013-04-27 04:52:00,48.0,29.0,-100.00,NE,37,3.0,6.0,48,0.00,,,0.00,1.000000,,2013-04-27 11:52:00,
2013-04-27 05:01:00,48.0,29.0,-100.00,NE,37,3.0,6.0,48,0.00,,,0.00,1.000000,,2013-04-27 12:01:00,
2013-04-27 05:32:00,45.0,31.0,-100.00,SSW,192,3.0,5.0,57,0.00,,,0.00,1.000000,,2013-04-27 12:32:00,
2013-04-27 05:42:00,45.0,31.0,-100.00,SSW,192,3.0,5.0,57,0.00,,,0.00,1.000000,,2013-04-27 12:42:00,
2013-04-27 05:52:00,45.0,31.0,-100.00,SSW,192,3.0,5.0,57,0.00,,,0.00,1.000000,,2013-04-27 12:52:00,
2013-04-27 06:01:00,45.0,31.0,-100.00,SSW,192,3.0,5.0,57,0.00,,,0.00,1.000000,,2013-04-27 13:01:00,
2013-04-27 06:02:00,49.0,30.0,-100.00,SSW,208,7.0,10.0,47,0.00,,,0.00,1.000000,,2013-04-27 13:02:00,
2013-04-27 06:32:00,49.0,30.0,-100.00,SSW,208,7.0,10.0,47,0.00,,,0.00,1.000000,,2013-04-27 13:32:00,
2013-04-27 06:42:00,49.0,30.0,-100.00,SSW,208,7.0,10.0,47,0.00,,,0.00,1.000000,,2013-04-27 13:42:00,
2013-04-27 06:52:00,49.0,30.0,-100.00,SSW,208,7.0,10.0,47,0.00,,,0.00,1.000000,,2013-04-27 13:52:00,
2013-04-27 07:32:00,50.0,29.0,-100.00,SSW,213,6.0,10.0,45,-99.99,,,0.00,33.000000,,2013-04-27 14:32:00,
2013-04-27 07:42:00,50.0,29.0,-100.00,SSW,213,6.0,10.0,45,-99.99,,,0.00,33.000000,,2013-04-27 14:42:00,
2013-04-27 07:52:00,50.0,29.0,-100.00,SSW,213,6.0,10.0,45,-99.99,,,0.00,33.000000,,2013-04-27 14:52:00,
2013-04-27 08:33:00,59.0,32.0,-100.00,SSW,213,6.0,10.0,36,0.00,,,-99.99,176.000000,,2013-04-27 15:33:00,
2013-04-27 09:02:00,61.0,31.0,-100.00,WSW,242,8.0,12.0,32,-99.99,,,0.00,350.000000,,2013-04-27 16:02:00,
2013-04-27 09:23:00,61.0,31.0,-100.00,WSW,242,8.0,12.0,32,-99.99,,,0.00,350.000000,,2013-04-27 16:23:00,
2013-04-27 09:33:00,61.0,31.0,-100.00,WSW,242,8.0,12.0,32,-99.99,,,0.00,350.000000,,2013-04-27 16:33:00,
2013-04-27 09:42:00,61.0,31.0,-100.00,WSW,242,8.0,12.0,32,-99.99,,,0.00,350.000000,,2013-04-27 16:42:00,
2013-04-27 09:52:00,61.0,31.0,-100.00,WSW,242,8.0,12.0,32,-99.99,,,0.00,350.000000,,2013-04-27 16:52:00,
2013-04-27 10:02:00,65.0,31.0,-100.00,West,276,6.0,11.0,28,0.00,,,0.00,477.000000,,2013-04-27 17:02:00,
2013-04-27 10:32:00,65.0,31.0,-100.00,West,276,6.0,11.0,28,0.00,,,0.00,477.000000,,2013-04-27 17:32:00,
2013-04-27 10:42:00,65.0,31.0,-100.00,West,276,6.0,11.0,28,0.00,,,0.00,477.000000,,2013-04-27 17:42:00,
2013-04-27 10:53:00,65.0,31.0,-100.00,West,276,6.0,11.0,28,0.00,,,0.00,477.000000,,2013-04-27 17:53:00,
2013-04-27 11:22:00,69.0,24.0,-100.00,SW,229,11.0,16.0,18,0.00,,,0.00,673.000000,,2013-04-27 18:22:00,
2013-04-27 11:32:00,69.0,24.0,-100.00,SW,229,11.0,16.0,18,0.00,,,0.00,673.000000,,2013-04-27 18:32:00,
2013-04-27 12:02:00,71.0,25.0,-100.00,WSW,250,12.0,21.0,18,0.00,,,0.00,709.000000,,2013-04-27 19:02:00,
2013-04-27 12:22:00,71.0,25.0,-100.00,WSW,250,12.0,21.0,18,0.00,,,0.00,709.000000,,2013-04-27 19:22:00,
2013-04-27 12:32:00,71.0,25.0,-100.00,WSW,250,12.0,21.0,18,0.00,,,0.00,709.000000,,2013-04-27 19:32:00,
2013-04-27 12:42:00,71.0,25.0,-100.00,WSW,250,12.0,21.0,18,0.00,,,0.00,709.000000,,2013-04-27 19:42:00,
2013-04-27 12:52:00,71.0,25.0,-100.00,WSW,250,12.0,21.0,18,0.00,,,0.00,709.000000,,2013-04-27 19:52:00,
2013-04-27 13:02:00,70.0,25.0,-100.00,WSW,250,20.0,27.0,18,0.00,,,0.00,647.000000,,2013-04-27 20:02:00,
2013-04-27 13:32:00,70.0,25.0,-100.00,WSW,250,20.0,27.0,18,0.00,,,0.00,647.000000,,2013-04-27 20:32:00,
2013-04-27 13:42:00,70.0,25.0,-100.00,WSW,250,20.0,27.0,18,0.00,,,0.00,647.000000,,2013-04-27 20:42:00,
2013-04-27 13:52:00,70.0,25.0,-100.00,WSW,250,20.0,27.0,18,0.00,,,0.00,647.000000,,2013-04-27 20:52:00,
2013-04-27 14:02:00,70.0,26.0,-100.00,SW,227,17.0,29.0,19,0.00,,,0.00,636.000000,,2013-04-27 21:02:00,
2013-04-27 14:22:00,70.0,26.0,-100.00,SW,227,17.0,29.0,19,0.00,,,0.00,636.000000,,2013-04-27 21:22:00,
2013-04-27 14:33:00,70.0,26.0,-100.00,SW,227,17.0,29.0,19,0.00,,,0.00,636.000000,,2013-04-27 21:33:00,
2013-04-27 14:43:00,70.0,26.0,-100.00,SW,227,17.0,29.0,19,0.00,,,0.00,636.000000,,2013-04-27 21:43:00,
2013-04-27 14:53:00,70.0,26.0,-100.00,SW,227,17.0,29.0,19,0.00,,,0.00,636.000000,,2013-04-27 21:53:00,
2013-04-27 15:02:00,69.0,25.0,-100.00,WSW,250,12.0,25.0,19,0.00,,,0.00,474.000000,,2013-04-27 22:02:00,
2013-04-27 15:32:00,69.0,25.0,-100.00,WSW,250,12.0,25.0,19,0.00,,,0.00,474.000000,,2013-04-27 22:32:00,
2013-04-27 15:42:00,69.0,25.0,-100.00,WSW,250,12.0,25.0,19,0.00,,,0.00,474.000000,,2013-04-27 22:42:00,
2013-04-27 15:52:00,69.0,25.0,-100.00,WSW,250,12.0,25.0,19,0.00,,,0.00,474.000000,,2013-04-27 22:52:00,
2013-04-27 16:22:00,69.0,24.0,-100.00,WSW,238,13.0,21.0,18,0.00,,,0.00,297.000000,,2013-04-27 23:22:00,
2013-04-27 16:32:00,69.0,24.0,-100.00,WSW,238,13.0,21.0,18,0.00,,,0.00,297.000000,,2013-04-27 23:32:00,
2013-04-27 16:42:00,69.0,24.0,-100.00,WSW,238,13.0,21.0,18,0.00,,,0.00,297.000000,,2013-04-27 23:42:00,
2013-04-27 16:52:00,69.0,24.0,-100.00,WSW,238,13.0,21.0,18,0.00,,,0.00,297.000000,,2013-04-27 23:52:00,
2013-04-27 17:01:00,69.0,24.0,-100.00,WSW,238,13.0,21.0,18,0.00,,,0.00,297.000000,,2013-04-28 00:01:00,
2013-04-27 17:22:00,68.0,25.0,-100.00,WSW,249,12.0,20.0,20,0.00,,,0.00,210.000000,,2013-04-28 00:22:00,
2013-04-27 17:32:00,68.0,25.0,-100.00,WSW,249,12.0,20.0,20,0.00,,,0.00,210.000000,,2013-04-28 00:32:00,
2013-04-27 17:43:00,68.0,25.0,-100.00,WSW,249,12.0,20.0,20,0.00,,,0.00,210.000000,,2013-04-28 00:43:00,
2013-04-27 17:52:00,68.0,25.0,-100.00,WSW,249,12.0,20.0,20,0.00,,,0.00,210.000000,,2013-04-28 00:52:00,
2013-04-27 18:01:00,68.0,25.0,-100.00,WSW,249,12.0,20.0,20,0.00,,,0.00,210.000000,,2013-04-28 01:01:00,
2013-04-27 18:22:00,67.0,30.0,-100.00,West,278,15.0,22.0,25,0.00,,,0.00,160.000000,,2013-04-28 01:22:00,
2013-04-27 18:32:00,67.0,30.0,-100.00,West,278,15.0,22.0,25,0.00,,,0.00,160.000000,,2013-04-28 01:32:00,
2013-04-27 18:42:00,67.0,30.0,-100.00,West,278,15.0,22.0,25,0.00,,,0.00,160.000000,,2013-04-28 01:42:00,
2013-04-27 18:52:00,67.0,30.0,-100.00,West,278,15.0,22.0,25,0.00,,,0.00,160.000000,,2013-04-28 01:52:00,
2013-04-27 19:01:00,67.0,30.0,-100.00,West,278,15.0,22.0,25,0.00,,,0.00,160.000000,,2013-04-28 02:01:00,
2013-04-27 19:32:00,67.0,28.0,-100.00,West,279,16.0,26.0,23,0.00,,,0.00,347.000000,,2013-04-28 02:32:00,
2013-04-27 19:42:00,67.0,28.0,-100.00,West,279,16.0,26.0,23,0.00,,,0.00,347.000000,,2013-04-28 02:42:00,
2013-04-27 19:52:00,67.0,28.0,-100.00,West,279,16.0,26.0,23,0.00,,,0.00,347.000000,,2013-04-28 02:52:00,
2013-04-27 20:01:00,67.0,28.0,-100.00,West,279,16.0,26.0,23,0.00,,,0.00,347.000000,,2013-04-28 03:01:00,
2013-04-27 20:02:00,61.0,28.0,-100.00,West,275,13.0,24.0,28,0.00,,,0.00,123.000000,,2013-04-28 03:02:00,
2013-04-27 20:22:00,61.0,28.0,-100.00,West,275,13.0,24.0,28,0.00,,,0.00,123.000000,,2013-04-28 03:22:00,
2013-04-27 20:33:00,61.0,28.0,-100.00,West,275,13.0,24.0,28,0.00,,,0.00,123.000000,,2013-04-28 03:33:00,
2013-04-27 20:43:00,61.0,28.0,-100.00,West,275,13.0,24.0,28,0.00,,,0.00,123.000000,,2013-04-28 03:43:00,
2013-04-27 20:53:00,61.0,28.0,-100.00,West,275,13.0,24.0,28,0.00,,,0.00,123.000000,,2013-04-28 03:53:00,
2013-04-27 21:02:00,56.0,28.0,-100.00,WSW,257,7.0,19.0,34,0.00,,,0.00,1.000000,,2013-04-28 04:02:00,
2013-04-27 21:32:00,56.0,28.0,-100.00,WSW,257,7.0,19.0,34,0.00,,,0.00,1.000000,,2013-04-28 04:32:00,
2013-04-27 21:43:00,56.0,28.0,-100.00,WSW,257,7.0,19.0,34,0.00,,,0.00,1.000000,,2013-04-28 04:43:00,
2013-04-27 21:53:00,56.0,28.0,-100.00,WSW,257,7.0,19.0,34,0.00,,,0.00,1.000000,,2013-04-28 04:53:00,
2013-04-27 22:22:00,55.0,31.0,-100.00,WSW,251,11.0,16.0,39,0.00,,,0.00,1.000000,,2013-04-28 05:22:00,
2013-04-27 22:32:00,55.0,31.0,-100.00,WSW,251,11.0,16.0,39,0.00,,,0.00,1.000000,,2013-04-28 05:32:00,
2013-04-27 22:42:00,55.0,31.0,-100.00,WSW,251,11.0,16.0,39,0.00,,,0.00,1.000000,,2013-04-28 05:42:00,
2013-04-27 22:52:00,55.0,31.0,-100.00,WSW,251,11.0,16.0,39,0.00,,,0.00,1.000000,,2013-04-28 05:52:00,
2013-04-27 23:01:00,55.0,31.0,-100.00,WSW,251,11.0,16.0,39,0.00,,,0.00,1.000000,,2013-04-28 06:01:00,
2013-04-27 23:22:00,53.0,32.0,-100.00,WSW,248,10.0,16.0,45,0.00,,,0.00,1.000000,,2013-04-28 06:22:00,
2013-04-27 23:32:00,53.0,32.0,-100.00,WSW,248,10.0,16.0,45,0.00,,,0.00,1.000000,,2013-04-28 06:32:00,
2013-04-27 23:42:00,53.0,32.0,-100.00,WSW,248,10.0,16.0,45,0.00,,,0.00,1.000000,,2013-04-28 06:42:00,
2013-04-27 23:52:00,53.0,32.0,-100.00,WSW,248,10.0,16.0,45,0.00,,,0.00,1.000000,,2013-04-28 06:52:00,